Voltar ao catálogo

KAZEOSAT 2

AtivoCiênciaSSO
NORAD 40010·PAYLOAD·🇰🇿 Kazakhstan

Lançado Jun 19, 2014 de Dombarovsky

Loading…

Próximas Passagens (próximas 24 horas)

TLE

AtualizadoSource: Space-Track

Época: Sep 14, 2026, 14:44 UTC

1 40010U 14033A   26257.61446970 -.00000100  00000-0 -57911-5 0  9996
2 40010  97.5359  92.4947 0009514  32.4041 327.7757 14.85556016662231

Acompanhe KAZEOSAT 2 em tempo real com AllMySat

Download on the App Store